www.pogodaiklimat.ru

Погода и климат >> Архив погоды >> Беларусь >> Минск


АРХИВ ПОГОДЫ в Минске

Время (UTC), дата Ветер
(напр.,м/с)
 
Видим.   Явления Облачность Т
(С)
Тd
(С)
f
(%)
Тe
(С)
Тes
(С)
Комфортность P
(гПа)
Po
(гПа)
Тmin
(С)
Tmax
(С)
R
(мм)
R24
(мм)
S
(см)
09 18.04 СВ 1 20 км 8/8 1200 м
[Sc]
+2.8 -7.9 45 +2 +5 холодно 1023.4 995.2
12 18.04 СВ 1 23 км 9/8 1140 м
[Sc Ac trans]
+4.2 -7.7 42 +4 +5 холодно 1023.3 995.3
15 18.04 В 1 26 км 8/4 1000 м
[Sc Ac trans]
+4.7 -7.7 40 +4 +5 прохладно 1023.5 995.5
18 18.04 СВ 2 22 км в посл. час ливневой снег 8/0
[Ac trans]
+2.7 -5.4 55 0 0 холодно 1025.1 996.9 +5.3
21 18.04 СВ 2 24 км 3/0
[Ac trans]
+0.2 -6.2 62 -3 -3 очень
холодно
1026.4 997.9
00 19.04 СВ 2 21 км ясно -1.1 -6.0 69 -5 -5 очень
холодно
1027.2 998.5
03 19.04 СВ 1 22 км ясно -2.3 -6.5 73 -4 -4 очень
холодно
1027.3 998.5
06 19.04 СВ 2 19 км ясно +1.1 -5.5 61 -2 +3 холодно 1028.7 1000.2 -2.4
09 19.04 СВ 2 21 км 9/6 600 м
[Sc Ac trans]
+2.7 -9.1 41 +1 +3 холодно 1028.9 1000.6
12 19.04 СВ 3 22 км {ливн. осадки} 10/6 600 м
[Sc Ac trans]
+2.8 -9.4 40 -0 +1 очень
холодно
1029.0 1000.7
15 19.04 СВ 3 19 км 10/5 750 м
[Sc Ac trans]
+2.3 -7.9 47 -1 -1 очень
холодно
1029.3 1000.9
18 19.04 СВ 2 17 км {ливн. осадки} 10/6 1000 м
[Sc Ac trans]
+0.9 -9.1 47 -2 -2 очень
холодно
1030.7 1002.1 +4.7
21 19.04 С 1 23 км 8/0
[Ac trans]
-0.5 -8.3 56 -2 -2 холодно 1031.1 1002.4
00 20.04 С 1 22 км ясно -1.9 -8.3 62 -4 -4 холодно 1031.0 1002.1
03 20.04 С 1 21 км ясно -2.8 -8.8 63 -5 -5 очень
холодно
1030.8 1001.8
06 20.04 СВ 1 22 км ясно +1.8 -8.7 46 +1 +6 прохладно 1030.7 1002.2 -3.1
09 20.04 С 1 30 км 8/5 800 м
[Cu med, cong Ac lent]
+5.0 -10.6 31 +5 +8 по сезону 1030.2 1002.1
12 20.04 В 1 20 км 5/0
[Ac trans]
+6.3 -10.8 28 +6 +15 опасность
простуды
1028.1 1000.2
15 20.04 С 2 23 км ясно +6.9 -11.2 26 +6 +8 прохладно 1026.2 998.4
18 20.04 С 1 21 км ясно +4.0 -10.2 35 +4 +4 прохладно 1026.0 997.9 +8.4
21 20.04 штиль 0 19 км 3/0
[Ci fib]
-0.2 -7.6 57 -1 -1 холодно 1025.9 997.3
00 21.04 штиль 0 15 км ясно -1.9 -7.3 67 -3 -3 холодно 1024.6 995.9
03 21.04 штиль 0 16 км 3/0
[Ci fib]
-2.6 -6.7 73 -3 -3 холодно 1022.6 993.9
06 21.04 З 2 16 км 3/0
[Ci ing]
+4.3 -6.2 46 +2 +6 прохладно 1019.4 991.5 -2.8
09 21.04 З 3
{10}
17 км 10/10 240 м
[Frnb]
+6.5 -4.7 45 +4 +4 прохладно 1016.2 988.6
12 21.04 ЮЗ 3
{12}
16 км 10/10 300 м
[Frnb]
+6.9 -2.3 52 +4 +4 очень
холодно
1012.6 985.2
15 21.04 З 5-10
{12}
13 км 10/10 570 м
[Frnb]
+6.0 +0.9 70 +2 +2 очень
холодно
1010.2 982.7
18 21.04 З 4
{11}
12 км в посл. час морось 10/10 360 м
[St]
+6.0 +2.8 80 +2 +2 холодно 1008.2 980.8 +7.6
21 21.04 З 2 6000 м слабый дождь 10/10 300 м
[Sc]
+5.6 +4.4 92 +3 +3 прохладно 1005.4 978.0
00 22.04 З 3 14 км слабая морось {дождь} 10/10 420 м
[Sc]
+6.8 +5.0 88 +4 +4 по сезону 1001.8 974.6
03 22.04 З 3 12 км слабый дождь {морось} 10/10 330 м
[Sc]
+6.7 +5.4 91 +4 +4 по сезону 997.7 970.6
06 22.04 З 3-11
{13}
24 км в посл. час дождь {морось} 9/8 420 м
[Sc As op]
+4.3 +2.5 88 +1 +1 прохладно 997.2 969.9 +3.8 5
09 22.04 З 7-13
{15}
17 км в посл. час ливневой дождь 8/8 870 м
[Sc]
+5.9 +0.9 70 +1 +2 очень
холодно
998.3 971.1
12 22.04 З 7-15
{17}
21 км в посл. час ливневой дождь 8/8 600 м
[Sc]
+6.9 -2.4 52 +3 +3 очень
холодно
1001.2 974.1
15 22.04 З 6-15
{16}
24 км {ливн. осадки} 8/8 1410 м
[Cu Sc]
+8.5 -4.7 39 +5 +5 холодно 1001.7 974.7
18 22.04 З 5-10
{15}
21 км в посл. час ливневой дождь 4/4 1000 м
[Sc]
+5.1 -2.2 59 +1 +1 очень
холодно
1003.6 976.2 +8.9 0.7
21 22.04 З 3
{10}
21 км ясно +3.4 -2.2 67 -0 -0 холодно 1004.7 977.1
00 23.04 З 2 21 км ясно +1.9 -1.9 76 -1 -1 прохладно 1004.6 976.9
03 23.04 З 2 19 км 3/0
[Ac trans]
+1.0 -1.4 84 -2 -2 холодно 1004.9 977.1
06 23.04 З 3 20 км 8/8 630 м
[Sc]
+2.3 -2.5 71 -2 -1 очень
холодно
1006.5 978.7 +0.9
09 23.04 З 3 19 км 8/8 1110 м
[Cu hum]
+6.2 -3.5 50 +4 +6 холодно 1007.0 979.6
12 23.04 З 3
{12}
20 км в посл. час ливневой снег 5/5 1080 м
[Cu hum Ci fib]
+6.7 -3.1 50 +4 +9 очень
холодно
1007.5 980.2
15 23.04 З 3
{10}
26 км {ливн. осадки} 5/5 1020 м
[Cu hum Ac trans]
+7.8 -7.8 32 +6 +7 прохладно 1007.8 980.6
18 23.04 СЗ 2 22 км {ливн. осадки} 3/0
[Ac trans]
+4.6 -4.8 50 +3 +3 холодно 1010.1 982.5 +8.3
21 23.04 З 1 20 км 3/0
[Ac trans]
+2.4 -3.1 67 +1 +1 холодно 1011.6 983.7
00 24.04 З 1 19 км ясно +1.1 -3.0 74 -1 -1 холодно 1012.1 984.1
03 24.04 штиль 0 23 км ясно -0.9 -3.2 84 -2 -2 холодно 1012.1 983.9
06 24.04 З 1 17 км ясно +4.2 -3.2 59 +3 +9 прохладно 1012.4 984.7 -1.0
09 24.04 21 км н/о +6.9 -5.8 40 +5 +11 прохладно 1012.4 985.0
12 24.04 З 5-10
{11}
22 км слабая крупа {ливн. осадки} 9/9 600 м
[Sc]
+6.1 -2.8 53 +2 +3 очень
холодно
1012.6 985.1
15 24.04 З 2
{11}
20 км {ливн. осадки} 8/8 800 м
[Sc]
+7.3 -3.1 48 +6 +6 холодно 1011.7 984.3
18 24.04 ЮЗ 1
{12}
15 км {ливн. осадки} 3/0
[Ac trans]
+3.2 +1.6 89 +2 +2 очень
холодно
1013.6 985.7 +10.6 2
21 24.04 штиль 0 17 км 5/0
[Ac trans]
+2.9 +0.8 86 +2 +2 прохладно 1013.6 985.7
00 25.04 штиль 0 19 км 3/0
[Ci fib]
+2.9 -0.3 79 +2 +2 по сезону 1013.4 985.5
03 25.04 Ю 1 19 км 8/0
[Ac trans Ci fib]
+2.1 -1.2 79 +1 +1 прохладно 1012.8 984.9

 

Местоположение метеостанции Минск (город Минск, Беларусь): широта 53.93 долгота 27.63 высота над уровнем моря 231 м.

В архиве по умолчанию представлена погода в Минске за последнюю неделю. Архивные данные за месяц целиком и за предыдущие месяцы, начиная с января 2011 года, Вы можете получить, выбрав интересующий диапазон дат из раскрывающегося списка и нажав кнопку "Ввод!".

Внимание! Время в таблицах - всемирное. Для получения местного времени необходимо прибавить поправку, которая в Минске равна 3 ч.

Смотрите также архив погоды в соседних городах и на ближайших метеорологических станциях:

Погода в Марьиной Горке (Минская область, Беларусь) (63 км)
Погода в Борисове (Минская область, Беларусь) (68 км)
Погода в Воложине (Минская область, Беларусь) (75 км)
Погода в Вилейке (Минская область, Беларусь) (77 км)
Погода в Столбцах (Минская область, Беларусь) (78 км)
Погода в Березино (Минская область, Беларусь) (90 км)
Погода в Барановичах (Брестская область, Беларусь) (92 км)
Погода в Слуцке (Минская область, Беларусь) (100 км)
Погода в Докшицах (Витебская область, Беларусь) (106 км)
Погода в Кличеве (Могилевская область, Беларусь) (121 км)

Пояснения к столбцам:

Ветер - указаны скорость ветра в м/с - средняя за 10 мин, порывы в срок и между сроками (в фигурных скобках) и направление, откуда дует ветер: С - северный, СВ - северо-восточный, В - восточный, ЮВ - юго-восточный, Ю - южный, ЮЗ - юго-западный, З - западный, СЗ - северо-западный.
Видимость - горизонтальная дальность видимости в метрах или километрах. При видимости от 1 до 10 км при отсутствии осадков обычно наблюдается дымка, при ухудшении видимости до 1 км и менее - туман. В сухую погоду видимость может ухудшаться дымом, пылью или мглою.
Явления - указаны атмосферные явления, наблюдавшиеся в срок или в последний час перед сроком; фигурными скобками обозначены явления, наблюдавшиеся между сроками (за 1-3 часа до срока); квадратными скобками обозначены град или гололедные отложения с указанием их диаметра в мм.
Облачность - указаны через наклонную черту общая и нижняя облачность в баллах и высота нижней границы облаков в метрах; квадратными скобками обозначены формы облаков: Ci - перистые, Cs - перисто-слоистые, Cc - перисто-кучевые, Ac - высококучевые, As - высокослоистые, Sc - слоисто-кучевые, Ns - слоисто-дождевые, Cu - кучевые, Cb - кучево-дождевые. Подробнее классификацию облаков см. в Атласе облаков (PDF).
T - Температура воздуха - температура, измеренная на высоте 2 м над землей.
Td - Температура точки росы - температура, при понижении до которой содержащийся в воздухе водяной пар достигнет насыщения.
f - Относительная влажность воздуха - влажноcть воздуха, измеренная на высоте 2 м над землей.
Te - Эффективная температура - температура, которую ощущает одетый по сезону человек в тени. Характеристика душности погоды. При расчете учитывается влияние влажности воздуха и скорости ветра на теплоощущения человека.
Tes - Эффективная температура на солнце - температура, которую ощущает человек, с поправкой на солнечный нагрев. Характеристика знойности погоды. Зависит от высоты солнца над горизонтом, облачности и скорости ветра. Ночью, в пасмурную погоду, а также при ветре 12 м/с и более поправка равна нулю.
P - Атмосферное давление - приведенное к уровню моря атмосферное давление.
Po - Атмосферное давление - измеренное на уровне метеостанции атмосферное давление.
Tmin - Минимальная температура - минимум температуры воздуха на высоте 2 м над землей.
Tmax - Максимальная температура - максимум температуры воздуха на высоте 2 м над землей.
R - Количество осадков - Количество выпавших осадков за период времени, мм. При наведении курсора мыши на число - период времени, за который выпало указанное количество осадков.
R24 - Количество осадков - Количество выпавших осадков за 24 часа, мм.
S - Снежный покров - Высота снежного покрова, см. При наведении курсора мыши на число - состояние снежного покрова и степень покрытия местности в баллах.